TimeMDT,TemperatureF,Dew PointF,Humidity,Sea Level PressureIn,VisibilityMPH,Wind Direction,Wind SpeedMPH,Gust SpeedMPH,PrecipitationIn,Events,Conditions,WindDirDegrees,DateUTC
12:53 AM,46.9,44.1,90,29.68,10.0,SW,11.5,-,0.03,Rain,Light Rain,230,2013-04-06 06:53:00
1:40 AM,46.4,44.6,93,29.67,9.0,WSW,9.2,-,0.00,,Overcast,250,2013-04-06 07:40:00
1:53 AM,46.9,44.1,90,29.68,10.0,West,5.8,-,0.00,,Overcast,260,2013-04-06 07:53:00
2:53 AM,45.0,42.1,90,29.69,10.0,WNW,11.5,-,N/A,,Partly Cloudy,290,2013-04-06 08:53:00
3:53 AM,46.9,43.0,86,29.67,10.0,West,20.7,28.8,N/A,,Overcast,270,2013-04-06 09:53:00
4:53 AM,44.1,42.1,93,29.68,10.0,WNW,9.2,-,N/A,,Mostly Cloudy,290,2013-04-06 10:53:00
5:53 AM,43.0,39.9,89,29.69,10.0,West,10.4,-,N/A,,Clear,280,2013-04-06 11:53:00
6:53 AM,43.0,39.9,89,29.70,10.0,WNW,13.8,-,N/A,,Mostly Cloudy,290,2013-04-06 12:53:00
7:53 AM,46.9,41.0,80,29.73,10.0,WNW,16.1,24.2,N/A,,Clear,300,2013-04-06 13:53:00
8:53 AM,50.0,43.0,77,29.73,10.0,WNW,15.0,21.9,N/A,,Clear,300,2013-04-06 14:53:00
9:53 AM,54.0,41.0,62,29.74,10.0,NW,21.9,27.6,N/A,,Clear,320,2013-04-06 15:53:00
10:53 AM,55.9,39.9,55,29.75,10.0,NW,18.4,25.3,N/A,,Clear,310,2013-04-06 16:53:00
11:53 AM,57.9,39.0,49,29.75,10.0,NW,16.1,25.3,N/A,,Partly Cloudy,310,2013-04-06 17:53:00
12:53 PM,60.1,37.9,44,29.74,10.0,NW,18.4,26.5,N/A,,Mostly Cloudy,310,2013-04-06 18:53:00
1:53 PM,62.1,36.0,38,29.73,10.0,NNW,19.6,26.5,N/A,,Mostly Cloudy,330,2013-04-06 19:53:00
2:53 PM,60.1,34.0,38,29.73,10.0,NW,15.0,25.3,N/A,,Scattered Clouds,320,2013-04-06 20:53:00
3:53 PM,61.0,33.1,35,29.73,10.0,NNW,20.7,26.5,N/A,,Clear,330,2013-04-06 21:53:00
4:53 PM,60.1,32.0,35,29.74,10.0,NNW,17.3,28.8,N/A,,Clear,330,2013-04-06 22:53:00
5:53 PM,57.9,32.0,37,29.75,10.0,NNW,16.1,-,N/A,,Clear,340,2013-04-06 23:53:00
6:53 PM,54.0,34.0,47,29.78,10.0,NE,10.4,-,N/A,,Clear,40,2013-04-07 00:53:00
7:53 PM,44.1,33.1,65,29.81,10.0,NE,12.7,-,N/A,,Clear,40,2013-04-07 01:53:00
8:53 PM,39.9,32.0,73,29.83,10.0,ENE,12.7,-,N/A,,Mostly Cloudy,60,2013-04-07 02:53:00
9:53 PM,35.1,28.9,78,29.85,10.0,East,11.5,-,N/A,,Clear,80,2013-04-07 03:53:00
10:53 PM,34.0,28.9,82,29.85,8.0,East,9.2,-,N/A,,Overcast,90,2013-04-07 04:53:00
11:53 PM,32.0,28.0,85,29.86,9.0,ESE,5.8,-,N/A,,Mostly Cloudy,110,2013-04-07 05:53:00